, AK

(GMT )
Denali Park

Weather History for PAIN - October, 2013

Change the Weather History Date:

Wednesday, October 9, 2013

  Actual Average Record
Temperature  
Mean Temperature 32 °F -  
Max Temperature 37 °F 36 °F 57 °F (2006)
Min Temperature 28 °F 19 °F -7 °F (2014)
Degree Days  
Heating Degree Days 32    
Moisture  
Dew Point 30 °F    
Average Humidity 83    
Maximum Humidity 100    
Minimum Humidity 70    
Precipitation  
Precipitation 0.00 in - - ()
Sea Level Pressure  
Sea Level Pressure 29.38 in    
Wind  
Wind Speed 3 mph (WSW)    
Max Wind Speed 8 mph    
Max Gust Speed 22 mph    
Visibility 8 miles    
Events      
Averages and records for this station are not official NWS values.
T = Trace of Precipitation, MM = Missing Value Source: NWS Daily Summary

Daily Weather History Graph

Daily Weather History Graph

Search for Another Location

Airport or City:

Astronomy

Oct. 09, 2013 Rise Set
Actual Time 8:28 AM AKDT 6:55 PM AKDT
Civil Twilight 7:41 AM AKDT 7:42 PM AKDT
Nautical Twilight 6:46 AM AKDT 8:37 PM AKDT
Astronomical Twilight 5:49 AM AKDT 9:33 PM AKDT
Moon 3:05 PM AKDT (10/9) 9:09 PM AKDT (10/9)
Length of Visible Light 12h 01m
Length of Day
10h 27m
Waxing Crescent, 27% of the Moon is Illuminated
Oct 9
Waxing Crescent
Oct 11
First Quarter
Oct 18
Full
Oct 26
Last Quarter
Nov 3
New

Hourly Weather History & Observations

Time (AKDT) Temp. Windchill Dew Point Humidity Pressure Visibility Wind Dir Wind Speed Gust Speed Precip Events Conditions
12:16 AM 37.4 °F 32.8 °F 33.8 °F 87% 28.98 in 10.0 mi NW 5.8 mph - N/A   Overcast
12:36 AM 37.4 °F - 35.6 °F 93% 28.99 in 9.0 mi Calm Calm - N/A   Overcast
12:56 AM 37.4 °F - 35.6 °F 93% 29.00 in 9.0 mi Calm Calm - N/A   Overcast
1:16 AM 35.6 °F - 33.8 °F 93% 29.00 in 6.0 mi Calm Calm - N/A   Overcast
1:36 AM 35.6 °F 29.2 °F 35.6 °F 100% 29.01 in 10.0 mi NE 8.1 mph - N/A   Overcast
1:56 AM 35.6 °F - 35.6 °F 100% 29.02 in 10.0 mi Calm Calm - N/A   Overcast
2:16 AM 37.4 °F 34.9 °F 35.6 °F 93% 29.03 in 10.0 mi NNW 3.5 mph - N/A   Overcast
2:36 AM 35.6 °F - 35.6 °F 100% 29.04 in 10.0 mi Calm Calm - N/A   Overcast
2:56 AM 35.6 °F - 35.6 °F 100% 29.05 in 10.0 mi Calm Calm - N/A   Overcast
3:16 AM 35.6 °F 31.7 °F 35.6 °F 100% 29.06 in 10.0 mi North 4.6 mph - N/A   Overcast
3:36 AM 35.6 °F 32.8 °F 35.6 °F 100% 29.07 in 10.0 mi North 3.5 mph - N/A   Overcast
3:56 AM 35.6 °F 32.8 °F 33.8 °F 93% 29.08 in 10.0 mi WNW 3.5 mph - N/A   Overcast
4:16 AM 35.6 °F - 35.6 °F 100% 29.10 in 9.0 mi Calm Calm - N/A   Overcast
4:36 AM 33.8 °F 28.6 °F 33.8 °F 100% 29.11 in 9.0 mi North 5.8 mph - N/A   Overcast
4:56 AM 35.6 °F 31.7 °F 33.8 °F 93% 29.13 in 10.0 mi North 4.6 mph - N/A   Overcast
5:16 AM 35.6 °F 31.7 °F 33.8 °F 93% 29.13 in 10.0 mi North 4.6 mph - N/A   Overcast
5:36 AM 35.6 °F - 33.8 °F 93% 29.14 in 10.0 mi Calm Calm - N/A   Overcast
5:56 AM 35.6 °F 29.9 °F 32.0 °F 87% 29.15 in 10.0 mi North 6.9 mph 21.9 mph N/A   Overcast
6:16 AM 35.6 °F 32.8 °F 30.2 °F 81% 29.17 in 10.0 mi NNW 3.5 mph - N/A   Overcast
6:36 AM 35.6 °F 32.8 °F 30.2 °F 81% 29.18 in 10.0 mi WNW 3.5 mph - N/A   Overcast
6:56 AM 35.6 °F - 30.2 °F 81% 29.20 in 10.0 mi Calm Calm - N/A   Overcast
7:16 AM 35.6 °F 30.7 °F 28.4 °F 75% 29.21 in 10.0 mi South 5.8 mph - N/A   Overcast
7:36 AM 35.6 °F 30.7 °F 28.4 °F 75% 29.22 in 9.0 mi SSW 5.8 mph - N/A   Overcast
7:56 AM 35.6 °F - 28.4 °F 75% 29.23 in 10.0 mi Calm Calm - N/A   Overcast
8:16 AM 35.6 °F 32.8 °F 28.4 °F 75% 29.25 in 10.0 mi SW 3.5 mph - N/A   Overcast
8:36 AM 35.6 °F 31.7 °F 28.4 °F 75% 29.26 in 10.0 mi West 4.6 mph 16.1 mph N/A   Mostly Cloudy
8:56 AM 35.6 °F 30.7 °F 28.4 °F 75% 29.28 in 10.0 mi SW 5.8 mph - N/A   Overcast
9:16 AM 35.6 °F 32.8 °F 28.4 °F 75% 29.30 in 10.0 mi SW 3.5 mph - N/A   Overcast
9:36 AM 35.6 °F - 28.4 °F 75% 29.31 in 10.0 mi Calm Calm - N/A   Overcast
9:56 AM 35.6 °F 29.9 °F 28.4 °F 75% 29.32 in 7.0 mi SW 6.9 mph - N/A   Mostly Cloudy
10:16 AM 35.6 °F 32.8 °F 30.2 °F 81% 29.34 in 3.0 mi WSW 3.5 mph - N/A   Overcast
10:36 AM 35.6 °F 32.8 °F 30.2 °F 81% 29.35 in 4.0 mi WSW 3.5 mph - N/A   Overcast
10:56 AM 33.8 °F 30.8 °F 30.2 °F 87% 29.37 in 4.0 mi SE 3.5 mph - N/A   Overcast
11:16 AM 33.8 °F - 30.2 °F 87% 29.38 in 7.0 mi Calm Calm - N/A   Overcast
11:36 AM 35.6 °F - 30.2 °F 81% 29.39 in 5.0 mi Calm Calm - N/A   Overcast
11:56 AM 35.6 °F - 30.2 °F 81% 29.40 in 9.0 mi Calm Calm - N/A   Overcast
12:16 PM 35.6 °F - 30.2 °F 81% 29.42 in 3.0 mi Calm Calm - N/A   Overcast
12:36 PM 35.6 °F 32.8 °F 30.2 °F 81% 29.43 in 5.0 mi SW 3.5 mph - N/A   Overcast
12:56 PM 35.6 °F 31.7 °F 30.2 °F 81% 29.44 in 5.0 mi SW 4.6 mph - N/A   Overcast
1:16 PM 35.6 °F 32.8 °F 30.2 °F 81% 29.46 in 5.0 mi SE 3.5 mph - N/A   Overcast
1:36 PM 35.6 °F 29.9 °F 30.2 °F 81% 29.47 in 9.0 mi SW 6.9 mph - N/A   Overcast
1:56 PM 35.6 °F 29.9 °F 28.4 °F 75% 29.48 in 5.0 mi WSW 6.9 mph - N/A   Overcast
2:16 PM 35.6 °F 29.9 °F 30.2 °F 81% 29.49 in 2.5 mi SW 6.9 mph - N/A   Overcast
2:36 PM 35.6 °F 29.9 °F 30.2 °F 81% 29.50 in 3.0 mi WSW 6.9 mph - N/A   Overcast
2:56 PM 35.6 °F 32.8 °F 28.4 °F 75% 29.51 in 6.0 mi NNW 3.5 mph - N/A   Overcast
3:16 PM 35.6 °F 32.8 °F 28.4 °F 75% 29.52 in 5.0 mi SW 3.5 mph - N/A   Overcast
3:36 PM 35.6 °F 32.8 °F 28.4 °F 75% 29.53 in 5.0 mi SSW 3.5 mph - N/A   Overcast
3:56 PM 35.6 °F - 28.4 °F 75% 29.54 in 4.0 mi Calm Calm - N/A   Overcast
4:16 PM 35.6 °F 32.8 °F 28.4 °F 75% 29.55 in 3.0 mi SE 3.5 mph - N/A   Overcast
4:36 PM 35.6 °F 31.7 °F 26.6 °F 70% 29.57 in 10.0 mi WNW 4.6 mph - N/A   Overcast
4:56 PM 35.6 °F 32.8 °F 26.6 °F 70% 29.58 in 10.0 mi WSW 3.5 mph - N/A   Overcast
5:16 PM 35.6 °F - 26.6 °F 70% 29.59 in 10.0 mi Calm Calm - N/A   Overcast
5:36 PM 35.6 °F 32.8 °F 26.6 °F 70% 29.60 in 10.0 mi South 3.5 mph - N/A   Overcast
5:56 PM 35.6 °F - 26.6 °F 70% 29.60 in 10.0 mi Calm Calm - N/A   Overcast
6:16 PM 33.8 °F 30.8 °F 26.6 °F 75% 29.61 in 10.0 mi WSW 3.5 mph - N/A   Overcast
6:36 PM 33.8 °F 28.6 °F 26.6 °F 75% 29.61 in 10.0 mi WSW 5.8 mph - N/A   Overcast
6:56 PM 33.8 °F 30.8 °F 26.6 °F 75% 29.62 in 7.0 mi West 3.5 mph - N/A   Overcast
7:16 PM 33.8 °F 30.8 °F 26.6 °F 75% 29.62 in 10.0 mi SSW 3.5 mph - N/A   Mostly Cloudy
7:36 PM 33.8 °F - 26.6 °F 75% 29.62 in 10.0 mi Calm Calm - N/A   Overcast
7:56 PM 33.8 °F - 26.6 °F 75% 29.63 in 10.0 mi Calm Calm - N/A   Overcast
8:16 PM 33.8 °F - 26.6 °F 75% 29.63 in 10.0 mi Calm Calm - N/A   Overcast
8:36 PM 32.0 °F - 26.6 °F 80% 29.63 in 10.0 mi Calm Calm - N/A   Overcast
8:56 PM 30.2 °F - 26.6 °F 86% 29.63 in 10.0 mi Calm Calm - N/A   Mostly Cloudy
9:16 PM 30.2 °F - 26.6 °F 86% 29.64 in 10.0 mi Calm Calm - N/A   Mostly Cloudy
9:36 PM 30.2 °F - 26.6 °F 86% 29.65 in 10.0 mi Calm Calm - N/A   Overcast
9:56 PM 30.2 °F - 26.6 °F 86% 29.65 in 10.0 mi Calm Calm - N/A   Overcast
10:16 PM 30.2 °F - 26.6 °F 86% 29.66 in 10.0 mi Calm Calm - N/A   Mostly Cloudy
10:36 PM 28.4 °F - 24.8 °F 86% 29.67 in 10.0 mi Calm Calm - N/A   Mostly Cloudy
10:56 PM 30.2 °F 26.7 °F 24.8 °F 80% 29.67 in 10.0 mi North 3.5 mph - N/A   Mostly Cloudy
11:16 PM 28.4 °F - 24.8 °F 86% 29.68 in 10.0 mi Calm Calm - N/A   Scattered Clouds
11:36 PM 30.2 °F - 24.8 °F 80% 29.68 in 10.0 mi Calm Calm - N/A   Partly Cloudy
11:56 PM 30.2 °F 25.4 °F 24.8 °F 80% 29.68 in 10.0 mi West 4.6 mph - N/A   Mostly Cloudy